Santee, CA

4:58 PM PDT on May 25, 2017 (GMT -0700)
Gillespie

Weather History for KSEE - August, 2014

Change the Weather History Date:

Saturday, August 2, 2014

  Actual Average Record
Temperature  
Mean Temperature 74 °F -  
Max Temperature 80 °F 85 °F 102 °F (1997)
Min Temperature 68 °F 61 °F 57 °F (1985)
Cooling Degree Days 9    
Growing Degree Days 24 (Base 50)    
Moisture  
Dew Point 67 °F    
Average Humidity 80    
Maximum Humidity 100    
Minimum Humidity 61    
Precipitation  
Precipitation 0.01 in - - ()
Sea Level Pressure  
Sea Level Pressure 29.93 in    
Wind  
Wind Speed 3 mph (WNW)    
Max Wind Speed 12 mph    
Max Gust Speed 17 mph    
Visibility 8 miles    
Events Rain    
Averages and records for this station are not official NWS values.
T = Trace of Precipitation, MM = Missing Value Source: NWS Daily Summary

Daily Weather History Graph

Daily Weather History Graph

Search for Another Location

Airport or City:

Trip Planner

Search our weather history database for the weather conditions in past years. The results will help you decide how hot, cold, wet, or windy it might be!

Date:

Astronomy

Aug. 02, 2014 Rise Set
Actual Time 6:02 AM PDT 7:45 PM PDT
Civil Twilight 5:35 AM PDT 8:12 PM PDT
Nautical Twilight 5:03 AM PDT 8:44 PM PDT
Astronomical Twilight 4:28 AM PDT 9:18 PM PDT
Moon 12:05 PM PDT (8/2) 11:31 PM PDT (8/2)
Length of Visible Light 14h 36m
Length of Day
13h 43m
Waxing Crescent, 38% of the Moon is Illuminated
Aug 2
Waxing Crescent
Aug 3
First Quarter
Aug 10
Full
Aug 17
Last Quarter
Aug 25
New

Hourly Weather History & Observations

Time (PDT) Temp. Heat Index Dew Point Humidity Pressure Visibility Wind Dir Wind Speed Gust Speed Precip Events Conditions
12:15 AM 69.8 °F - 62.6 °F 78% 29.92 in 10.0 mi West 5.8 mph - N/A   Clear
12:55 AM 69.8 °F - 64.4 °F 83% 29.91 in 10.0 mi West 4.6 mph - N/A   Clear
1:15 AM 68.0 °F - 64.4 °F 88% 29.91 in 9.0 mi West 5.8 mph - N/A   Clear
1:35 AM 69.8 °F - 64.4 °F 83% 29.91 in 9.0 mi West 4.6 mph - N/A   Clear
1:55 AM 68.0 °F - 64.4 °F 88% 29.91 in 9.0 mi West 4.6 mph - N/A   Clear
2:15 AM 68.0 °F - 64.4 °F 88% 29.90 in 9.0 mi NW 3.5 mph - N/A   Clear
2:35 AM 68.0 °F - 64.4 °F 88% 29.90 in 9.0 mi WNW 4.6 mph - N/A   Clear
3:15 AM 68.0 °F - 64.4 °F 88% 29.90 in 9.0 mi West 4.6 mph - N/A   Clear
3:35 AM 68.0 °F - 64.4 °F 88% 29.90 in 8.0 mi WNW 4.6 mph - N/A   Clear
3:55 AM 68.0 °F - 64.4 °F 88% 29.89 in 8.0 mi WNW 4.6 mph - N/A   Clear
4:15 AM 68.0 °F - 64.4 °F 88% 29.90 in 9.0 mi NW 3.5 mph - N/A   Clear
4:35 AM 68.0 °F - 64.4 °F 88% 29.90 in 9.0 mi West 3.5 mph - N/A   Clear
4:55 AM 68.0 °F - 64.4 °F 88% 29.90 in 9.0 mi West 3.5 mph - N/A   Clear
5:15 AM 68.0 °F - 64.4 °F 88% 29.90 in 9.0 mi Calm Calm - N/A   Clear
5:35 AM 68.0 °F - 64.4 °F 88% 29.90 in 9.0 mi NNW 3.5 mph - N/A   Clear
5:55 AM 69.8 °F - 64.4 °F 83% 29.90 in 9.0 mi North 3.5 mph - N/A   Clear
6:15 AM 69.8 °F - 64.4 °F 83% 29.91 in 8.0 mi Calm Calm - N/A   Clear
6:35 AM 69.8 °F - 64.4 °F 83% 29.91 in 8.0 mi West 4.6 mph - N/A   Clear
7:15 AM 69.8 °F - 64.4 °F 83% 29.94 in 7.0 mi South 3.5 mph - N/A   Clear
7:35 AM 69.8 °F - 64.4 °F 83% 29.95 in 8.0 mi Calm Calm - N/A   Clear
7:55 AM 71.6 °F - 64.4 °F 78% 29.94 in 10.0 mi Calm Calm - N/A   Overcast
8:15 AM 71.6 °F - 64.4 °F 78% 29.96 in 7.0 mi Calm Calm - N/A   Clear
8:35 AM 71.6 °F - 64.4 °F 78% 29.97 in 8.0 mi Calm Calm - N/A   Clear
8:55 AM 71.6 °F - 64.4 °F 78% 29.97 in 7.0 mi Calm Calm - N/A   Clear
9:15 AM 73.4 °F - 64.4 °F 73% 29.97 in 7.0 mi Calm Calm - N/A   Clear
9:35 AM 73.4 °F - 64.4 °F 73% 29.96 in 8.0 mi WNW 4.6 mph - N/A   Clear
9:55 AM 73.4 °F - 64.4 °F 73% 29.97 in 7.0 mi Calm Calm - N/A   Clear
10:15 AM 73.4 °F - 64.4 °F 73% 29.98 in 8.0 mi Calm Calm - N/A   Clear
10:35 AM 73.4 °F - 64.4 °F 73% 29.98 in 8.0 mi Calm Calm - N/A   Partly Cloudy
10:55 AM 75.2 °F - 64.4 °F 69% 29.97 in 10.0 mi Calm Calm - N/A   Overcast
11:15 AM 75.2 °F - 64.4 °F 69% 29.97 in 7.0 mi Calm Calm - N/A   Partly Cloudy
11:35 AM 77.0 °F - 64.4 °F 65% 29.98 in 8.0 mi Calm Calm - N/A   Partly Cloudy
11:55 AM 77.0 °F - 64.4 °F 65% 29.98 in 8.0 mi Calm Calm - N/A   Partly Cloudy
12:15 PM 75.2 °F - 66.2 °F 73% 29.98 in 7.0 mi Calm Calm - N/A   Scattered Clouds
12:35 PM 77.0 °F - 64.4 °F 65% 29.97 in 8.0 mi Calm Calm - N/A   Light Drizzle
12:55 PM 77.0 °F - 64.4 °F 65% 29.96 in 10.0 mi Calm Calm - N/A   Overcast
1:15 PM 78.8 °F - 66.2 °F 65% 29.98 in 8.0 mi Calm Calm - N/A   Clear
1:35 PM 78.8 °F - 64.4 °F 61% 29.98 in 9.0 mi North - - N/A   Light Drizzle
1:55 PM 78.8 °F - 66.2 °F 65% 29.99 in 8.0 mi WNW 4.6 mph - N/A   Partly Cloudy
2:15 PM 78.8 °F - 68.0 °F 69% 29.99 in 8.0 mi Calm Calm - N/A   Partly Cloudy
2:35 PM 80.6 °F 82.7 °F 66.2 °F 61% 29.98 in 8.0 mi Calm Calm - N/A   Partly Cloudy
2:47 PM 80.6 °F 82.7 °F 66.2 °F 61% 29.97 in 7.0 mi Calm Calm - N/A   Mostly Cloudy
2:55 PM 80.6 °F 83.2 °F 68.0 °F 65% 29.98 in 7.0 mi Calm Calm - N/A Rain Light Rain
3:15 PM 78.8 °F - 69.8 °F 74% 29.98 in 5.0 mi NNW 3.5 mph - N/A Rain Light Rain
3:35 PM 77.0 °F - 69.8 °F 78% 29.99 in 5.0 mi ENE 5.8 mph - N/A   Light Drizzle
3:47 PM 77.0 °F - 69.8 °F 78% 29.98 in 6.0 mi NNE 11.5 mph - N/A Rain Light Rain
3:55 PM 77.0 °F - 66.2 °F 69% 29.98 in 7.0 mi NE 11.5 mph 16.1 mph N/A Rain Light Rain
4:15 PM 75.2 °F - 68.0 °F 78% 29.94 in 4.0 mi NNW 6.9 mph - N/A Rain Light Rain
4:35 PM 75.2 °F - 69.8 °F 83% 29.92 in 10.0 mi Calm Calm - 0.01 in   Scattered Clouds
4:55 PM 77.0 °F - 69.8 °F 78% 29.91 in 10.0 mi Calm Calm - 0.01 in   Clear
5:15 PM 78.8 °F - 69.8 °F 74% 29.89 in 10.0 mi Calm Calm - N/A   Clear
5:35 PM 78.8 °F - 68.0 °F 69% 29.88 in 10.0 mi Calm Calm - N/A   Clear
5:55 PM 77.0 °F - 69.8 °F 78% 29.88 in 10.0 mi Calm Calm - N/A   Clear
6:15 PM 77.0 °F - 69.8 °F 78% 29.88 in 10.0 mi NW 4.6 mph - N/A   Scattered Clouds
6:35 PM 77.0 °F - 69.8 °F 78% 29.89 in 10.0 mi WNW 6.9 mph - N/A   Overcast
6:55 PM 77.0 °F - 69.8 °F 78% 29.89 in 10.0 mi WNW 9.2 mph - N/A   Mostly Cloudy
7:15 PM 75.2 °F - 71.6 °F 89% 29.89 in 5.0 mi West 9.2 mph - N/A   Mostly Cloudy
7:35 PM 73.4 °F - 71.6 °F 94% 29.90 in 6.0 mi West 11.5 mph - N/A   Mostly Cloudy
7:55 PM 71.6 °F - 71.6 °F 100% 29.91 in 6.0 mi WNW 11.5 mph 17.3 mph N/A   Overcast
8:15 PM 71.6 °F - 71.6 °F 100% 29.90 in 7.0 mi WNW 8.1 mph - N/A   Mostly Cloudy
8:35 PM 71.6 °F - 71.6 °F 100% 29.91 in 8.0 mi West 3.5 mph - N/A   Partly Cloudy
8:55 PM 71.6 °F - 71.6 °F 100% 29.92 in 8.0 mi West 4.6 mph - N/A   Clear
9:15 PM 71.6 °F - 71.6 °F 100% 29.92 in 8.0 mi West 4.6 mph - N/A   Mostly Cloudy
9:35 PM 71.6 °F - 71.6 °F 100% 29.93 in 8.0 mi West 3.5 mph - N/A   Overcast
9:55 PM 71.6 °F - 71.6 °F 100% 29.93 in 8.0 mi Calm Calm - N/A   Overcast
10:35 PM 71.6 °F - 71.6 °F 100% 29.93 in 8.0 mi Calm Calm - N/A   Scattered Clouds
11:35 PM 71.6 °F - 69.8 °F 94% 29.93 in 10.0 mi WNW 3.5 mph - N/A   Partly Cloudy
11:55 PM 71.6 °F - 68.0 °F 88% 29.93 in 10.0 mi Calm Calm - N/A   Scattered Clouds